www.pogodaiklimat.ru

Погода и климат >> Архив погоды >> Пакистан >> Дера Гази Хан


ПОГОДА в Дера Гази Хан

  • Прогноз погоды в Дера Гази Хан
  • Монитор погоды в Дера Гази Хан

АРХИВ ПОГОДЫ в Дера Гази Хан

Время (UTC), дата Ветер
(напр.,м/с)
 
Видим.   Явления Облачность Т
(С)
Тd
(С)
f
(%)
Тe
(С)
Тes
(С)
Комфортность P
(гПа)
Po
(гПа)
Тmin
(С)
Tmax
(С)
R
(мм)
R24
(мм)
S
(см)
09 15.04 ЮЗ 3 4000 м в посл. час гроза {дождь} 10/8 1200 м
[Sc Ac trans]
+22.0 +18.9 83 +27 +28 душно 1011.3 997.0 11
12 15.04 СВ 2 4000 м 6/6 1200 м
[Sc]
+20.5 +17.3 82 +25 +26 комфорт 1008.3 994.0 +26.1 17
18 15.04 СВ 2 4000 м 4/0
[Ac trans]
+18.0 +15.5 85 +19 +19 1009.2 991.9 17
21 15.04 С 2 4000 м 3/3 1200 м
[Sc]
+17.0 +14.4 85 +17 +17 1008.7 994.2
00 16.04 СВ 3 4000 м ясно +15.0 +12.3 84 +14 +14 1008.8 991.5
03 16.04 С 3 4000 м 4/4 1200 м
[Sc]
+18.0 +12.7 71 +18 +21 1008.9 991.6 +14.4
06 16.04 С 4 4000 м 8/4 1200 м
[Sc Ac trans]
+24.5 +16.4 61 +28 +32 душно 1009.2 995.0
09 16.04 СВ 3 4000 м 10/6 1200 м
[Sc Ac trans]
+26.5 +17.9 59 +31 +33 душно 1006.2 992.2
12 16.04 СЗ 5 4000 м {дождь} 10/8 1200 м
[Sc Ac trans]
+20.0 +17.6 86 +23 +23 комфорт 1004.6 987.3 +26.7 20
15 16.04 СВ 2 4000 м 8/4 1200 м
[Sc Ac trans]
+17.5 +14.0 80 +18 +18 1004.8 990.4
18 16.04 ЮВ 3 4000 м 8/5 1200 м
[Sc Ac trans]
+16.5 +13.9 85 +16 +16 1007.9 990.5 20
21 16.04 СВ 2 4000 м 6/6 1200 м
[Sc]
+15.5 +12.8 84 +15 +15 1007.0 992.4
00 17.04 СЗ 3 4000 м 9/4 1200 м
[Sc Ac trans]
+15.0 +12.3 84 +14 +14 1006.9 989.6
03 17.04 СВ 3 4000 м 5/5 1200 м
[Sc]
+18.5 +13.2 71 +19 +21 1009.0 991.7 +14.2
06 17.04 СВ 4 4000 м 8/5 1200 м
[Sc Ac trans]
+22.0 +15.4 66 +26 +29 душно 1012.0 997.7
09 17.04 СВ 4 4000 м 9/9 1200 м
[Sc]
+23.5 +16.2 64 +27 +28 душно 1011.3 997.1
12 17.04 СВ 3 4000 м 4/4 1200 м
[Sc]
+23.5 +16.2 64 +27 +28 душно 1009.6 992.2 +24.5
18 17.04 СВ 2 4000 м 4/4 1200 м
[Sc]
+19.5 +15.3 77 +22 +22 комфорт 1013.8 996.3
21 17.04 штиль 0 4000 м 6/6 1200 м
[Sc]
+18.5 +14.2 76 +19 +19 1013.0 998.5
00 18.04 СВ 2 4000 м 3/3 1200 м
[Sc]
+18.0 +14.6 81 +19 +19 1012.6 995.2
03 18.04 СВ 2 4000 м 3/0
[Ac trans]
+21.0 +16.0 73 +25 +29 комфорт 1015.2 997.8 +17.3
06 18.04 СВ 3 4000 м 4/4 1200 м
[Sc]
+26.0 +18.2 62 +31 +39 очень
душно
1015.8 1001.6
09 18.04 СЗ 3 4000 м 5/5 1200 м
[Sc]
+28.0 +17.9 54 +32 +39 душно 1014.9 1000.8
12 18.04 СВ 2 4000 м 5/5 1200 м
[Sc]
+28.0 +16.9 51 +32 +33 душно 1012.6 998.6 +28.7
15 18.04 В 1 4000 м 3/3 1200 м
[Sc]
+25.5 +16.7 58 +29 +29 душно 1013.0 998.8
18 18.04 В 1 4000 м ясно +23.5 +17.1 67 +27 +27 душно 1013.7 996.2
00 19.04 С 1 4000 м ясно +19.0 +14.7 76 +21 +21 комфорт 1012.7 998.2
03 19.04 С 1 4000 м ясно +21.5 +14.8 66 +25 +30 комфорт 1012.9 995.5 +17.0
06 19.04 Ю 1 4000 м ясно +26.5 +15.0 49 +29 +50 жарко 1013.2 999.1
09 19.04 ЮВ 2 4000 м ясно +31.5 +14.5 36 +33 +50 жарко 1010.2 996.4
12 19.04 ЮВ 2 4000 м ясно +32.0 +15.2 36 +34 +37 душно 1007.5 993.7 +32.0
18 19.04 ЮВ 1 4000 м ясно +26.0 +14.4 49 +28 +28 жарко 1008.4 991.1
21 19.04 ЮВ 1 4000 м ясно +23.0 +13.6 55 +26 +26 жарко 1007.9 993.7
00 20.04 СВ 1 4000 м ясно +20.0 +13.0 64 +23 +23 комфорт 1007.2 992.9
03 20.04 СВ 1 4000 м ясно +23.0 +15.6 63 +27 +33 душно 1008.0 990.6 +17.2
06 20.04 Ю 2 4000 м ясно +32.0 +15.2 36 +34 +52 опасность
солнечного
удара
1008.2 994.4
09 20.04 ЮВ 2 4000 м ясно +34.5 +15.6 32 +36 +53 опасность
солнечного
удара
1005.0 991.4
12 20.04 ЮВ 2 4000 м ясно +35.0 +16.3 33 +38 +41 очень
душно
1004.5 990.9 +36.0
18 20.04 С 2 4000 м ясно +28.0 +14.9 45 +31 +31 душно 1005.7 988.5
21 20.04 С 2 4000 м ясно +23.5 +15.2 60 +26 +26 жарко 1004.5 990.4
00 21.04 С 2 4000 м ясно +19.0 +13.8 72 +21 +21 комфорт 1003.8 989.5
03 21.04 СЗ 2 4000 м ясно +24.0 +15.8 60 +27 +32 жарко 1006.2 988.8 +17.3
06 21.04 СВ 2 4000 м ясно +33.0 +15.5 35 +35 +53 опасность
солнечного
удара
1007.0 993.3
09 21.04 ЮВ 3 4000 м ясно +36.0 +16.7 32 +39 +53 опасность
солнечного
удара
1004.8 991.2
12 21.04 ЮВ 3 4000 м ясно +36.0 +17.7 34 +39 +42 очень
душно
1003.3 989.8 +37.0
18 21.04 СВ 1 4000 м ясно +30.5 +18.2 48 +35 +35 очень
душно
1004.0 986.7
21 21.04 СЗ 1 4000 м ясно +26.0 +17.3 59 +30 +30 душно 1003.3 989.3
00 22.04 СЗ 2 4000 м ясно +21.5 +15.7 70 +25 +25 комфорт 1002.7 988.5
03 22.04 С 3 4000 м ясно +25.0 +17.0 61 +29 +33 душно 1005.6 988.2 +20.0
06 22.04 СВ 3 4000 м ясно +34.0 +16.9 36 +37 +52 опасность
солнечного
удара
1006.9 993.2

 

Местоположение метеостанции Дера Гази Хан (Пакистан): широта 30.05 долгота 70.63 высота над уровнем моря 123 м.

В архиве по умолчанию представлена погода в Дера Гази Хан за последнюю неделю. Архивные данные за месяц целиком и за предыдущие месяцы, начиная с января 2011 года, Вы можете получить, выбрав интересующий диапазон дат из раскрывающегося списка и нажав кнопку "Ввод!".


*Определитесь, кто Вы:
робот инопланетянин человек

Внимание! Время в таблицах - всемирное. Для получения местного времени необходимо прибавить поправку, которая равна 5 ч.

Смотрите также архив погоды в соседних городах и на ближайших метеорологических станциях:

Погода в Кот Адду (Пакистан) (54 км)
Погода в Мултане (Пакистан) (79 км)
Погода в Бархане (Пакистан) (90 км)
Погода в Леяхе (Пакистан) (113 км)
Погода в Ханевале (Пакистан) (125 км)
Погода в Бахавалпуре (Пакистан) (133 км)
Погода а Бахавалпур аэропорту (Пакистан) (133 км)
Погода в Ханпуре (Пакистан) (156 км)
Погода на Авиабазе Raifiqui (Пакистан) (171 км)
Погода в Бхаккаре (Пакистан) (180 км)

Пояснения к столбцам:

Ветер - указаны скорость ветра в м/с - средняя за 10 мин, порывы в срок и между сроками (в фигурных скобках) и направление, откуда дует ветер: С - северный, СВ - северо-восточный, В - восточный, ЮВ - юго-восточный, Ю - южный, ЮЗ - юго-западный, З - западный, СЗ - северо-западный.
Видимость - горизонтальная дальность видимости в метрах или километрах. При видимости от 1 до 10 км при отсутствии осадков обычно наблюдается дымка, при ухудшении видимости до 1 км и менее - туман. В сухую погоду видимость может ухудшаться дымом, пылью или мглою.
Явления - указаны атмосферные явления, наблюдавшиеся в срок или в последний час перед сроком; фигурными скобками обозначены явления, наблюдавшиеся между сроками (за 1-3 часа до срока); квадратными скобками обозначены град или гололедные отложения с указанием их диаметра в мм.
Облачность - указаны через наклонную черту общая и нижняя облачность в баллах и высота нижней границы облаков в метрах; квадратными скобками обозначены формы облаков: Ci - перистые, Cs - перисто-слоистые, Cc - перисто-кучевые, Ac - высококучевые, As - высокослоистые, Sc - слоисто-кучевые, Ns - слоисто-дождевые, Cu - кучевые, Cb - кучево-дождевые. Подробнее классификацию облаков см. в Атласе облаков (PDF).
T - Температура воздуха - температура, измеренная на высоте 2 м над землей.
Td - Температура точки росы - температура, при понижении до которой содержащийся в воздухе водяной пар достигнет насыщения.
f - Относительная влажность воздуха - влажноcть воздуха, измеренная на высоте 2 м над землей.
Te - Эффективная температура - температура, которую ощущает одетый по сезону человек в тени. Характеристика душности погоды. При расчете учитывается влияние влажности воздуха и скорости ветра на теплоощущения человека.
Tes - Эффективная температура на солнце - температура, которую ощущает человек, с поправкой на солнечный нагрев. Характеристика знойности погоды. Зависит от высоты солнца над горизонтом, облачности и скорости ветра. Ночью, в пасмурную погоду, а также при ветре 12 м/с и более поправка равна нулю.
P - Атмосферное давление - приведенное к уровню моря атмосферное давление.
Po - Атмосферное давление - измеренное на уровне метеостанции атмосферное давление.
Tmin - Минимальная температура - минимум температуры воздуха на высоте 2 м над землей.
Tmax - Максимальная температура - максимум температуры воздуха на высоте 2 м над землей.
R - Количество осадков - Количество выпавших осадков за период времени, мм. При наведении курсора мыши на число - период времени, за который выпало указанное количество осадков.
R24 - Количество осадков - Количество выпавших осадков за 24 часа, мм.
S - Снежный покров - Высота снежного покрова, см. При наведении курсора мыши на число - состояние снежного покрова и степень покрытия местности в баллах.